Tracking 31027 objects as of 19-Jul-2025
HD Live streaming from Space Station
objects crossing your sky now

OPS 4682 DEB

Track OPS 4682 DEB now!
10-day predictions


NORAD ID: 14049
Int'l Code: 1965-027L
Perigee: 1,260.7 km
Apogee: 1,321.5 km
Inclination: 90.2 °
Period: 111.2 minutes
Semi major axis: 7662 km
RCS: 0.0101 m2 (small)
Launch date: April 3, 1965
Source: United States (US)
Launch site: AIR FORCE WESTERN TEST RANGE (AFWTR)

Note: This is SATELLITE DEBRIS
Your satellite tracking list
THORAD DELTA 1 DEB
Track 1 satellite(s)




NASA's NSSDC Master Catalog

Two Line Element Set (TLE):
1 14049U 65027L   25199.89339464 -.00000051  00000-0 -20979-3 0  9998
2 14049  90.2421   1.0026 0039674 342.6184 176.1653 12.94428112 15126
Source of the keplerian elements: AFSPC